Hourly Weather Almalybak

Today, 11 May, Tuesday

Time Temperature Precipitation Wind Pressure Humidity
00:00 +17°C° 0 mm 2 mps 691 mmHg 76%
01:00 +16°C° 0 mm 1 mps 691 mmHg 75%
02:00 +16°C° 0 mm 1 mps 691 mmHg 73%
03:00 +16°C° 0 mm 1 mps 691 mmHg 72%
04:00 +16°C° 0 mm 1 mps 690 mmHg 71%
05:00 +16°C° 0 mm 1 mps 690 mmHg 72%
06:00 +18°C° 0 mm 1 mps 691 mmHg 68%
07:00 +19°C° 0 mm 1 mps 691 mmHg 64%
08:00 +20°C° 0 mm 1 mps 691 mmHg 60%
09:00 +20°C° 0 mm 1 mps 692 mmHg 58%
10:00 +20°C° 0 mm 2 mps 692 mmHg 55%
11:00 +21°C° 0 mm 2 mps 692 mmHg 53%
12:00 +21°C° 0.3 mm 2 mps 692 mmHg 52%
13:00 +22°C° 0.3 mm 3 mps 692 mmHg 52%
14:00 +22°C° 0.3 mm 3 mps 692 mmHg 52%
15:00 +22°C° 0.3 mm 3 mps 692 mmHg 53%
16:00 +21°C° 0.3 mm 3 mps 693 mmHg 54%
17:00 +21°C° 0.3 mm 4 mps 693 mmHg 55%
18:00 +20°C° 0.1 mm 3 mps 693 mmHg 57%
19:00 +18°C° 0.1 mm 3 mps 693 mmHg 59%
20:00 +17°C° 0.1 mm 2 mps 693 mmHg 62%
21:00 +17°C° 0 mm 2 mps 693 mmHg 61%
22:00 +16°C° 0 mm 2 mps 693 mmHg 61%
23:00 +16°C° 0 mm 3 mps 693 mmHg 60%

Tomorrow, 12 May, Wednesday

Time Temperature Precipitation Wind Pressure Humidity
00:00 +16°C° 0 mm 2 mps 693 mmHg 60%
01:00 +15°C° 0 mm 2 mps 692 mmHg 60%
02:00 +15°C° 0 mm 2 mps 692 mmHg 60%
03:00 +15°C° 0 mm 2 mps 692 mmHg 61%
04:00 +14°C° 0 mm 2 mps 692 mmHg 62%
05:00 +14°C° 0 mm 2 mps 692 mmHg 63%
06:00 +15°C° 0.1 mm 2 mps 692 mmHg 61%
07:00 +17°C° 0.1 mm 2 mps 693 mmHg 60%
08:00 +18°C° 0.1 mm 2 mps 693 mmHg 59%
09:00 +18°C° 0.8 mm 2 mps 693 mmHg 61%
10:00 +18°C° 0.8 mm 3 mps 693 mmHg 64%
11:00 +19°C° 0.8 mm 3 mps 694 mmHg 66%
12:00 +17°C° 2.3 mm 3 mps 694 mmHg 71%
13:00 +16°C° 2.3 mm 3 mps 694 mmHg 77%
14:00 +14°C° 2.3 mm 3 mps 693 mmHg 83%
15:00 +14°C° 1.4 mm 3 mps 694 mmHg 81%
16:00 +14°C° 1.4 mm 3 mps 694 mmHg 80%
17:00 +14°C° 1.4 mm 4 mps 695 mmHg 78%
18:00 +13°C° 0.1 mm 3 mps 695 mmHg 77%
19:00 +13°C° 0.1 mm 2 mps 695 mmHg 75%
20:00 +13°C° 0.1 mm 1 mps 695 mmHg 74%
21:00 +12°C° 0 mm 1 mps 695 mmHg 73%
22:00 +12°C° 0 mm 1 mps 695 mmHg 72%
23:00 +12°C° 0 mm 1 mps 695 mmHg 71%

Day after tomorrow, 13 May, Thursday

Time Temperature Precipitation Wind Pressure Humidity
00:00 +10°C° 0 mm 2 mps 695 mmHg 69%
01:00 +9°C° 0 mm 2 mps 695 mmHg 68%
02:00 +9°C° 0 mm 2 mps 694 mmHg 66%
03:00 +9°C° 0 mm 2 mps 694 mmHg 65%
04:00 +9°C° 0 mm 2 mps 694 mmHg 63%
05:00 +8°C° 0 mm 2 mps 694 mmHg 62%
06:00 +10°C° 0 mm 2 mps 694 mmHg 57%
07:00 +13°C° 0 mm 2 mps 694 mmHg 52%
08:00 +15°C° 0 mm 2 mps 694 mmHg 48%
09:00 +16°C° 0 mm 2 mps 694 mmHg 48%
10:00 +16°C° 0 mm 2 mps 694 mmHg 47%
11:00 +17°C° 0 mm 3 mps 694 mmHg 47%
12:00 +18°C° 0 mm 2 mps 694 mmHg 47%
13:00 +18°C° 0 mm 2 mps 694 mmHg 47%
14:00 +18°C° 0 mm 2 mps 694 mmHg 46%
15:00 +18°C° 0 mm 2 mps 694 mmHg 47%
16:00 +18°C° 0 mm 2 mps 694 mmHg 47%
17:00 +19°C° 0 mm 1 mps 694 mmHg 47%
18:00 +16°C° 0 mm 2 mps 694 mmHg 51%
19:00 +15°C° 0 mm 2 mps 694 mmHg 56%
20:00 +13°C° 0 mm 2 mps 694 mmHg 60%
21:00 +13°C° 0 mm 2 mps 694 mmHg 58%
22:00 +13°C° 0 mm 2 mps 694 mmHg 55%
23:00 +12°C° 0 mm 2 mps 694 mmHg 53%

14 May, Friday

Time Temperature Precipitation Wind Pressure Humidity
00:00 +12°C° 0 mm 2 mps 694 mmHg 51%
01:00 +12°C° 0 mm 2 mps 694 mmHg 50%
02:00 +12°C° 0 mm 2 mps 693 mmHg 48%
03:00 +12°C° 0 mm 2 mps 693 mmHg 48%
04:00 +10°C° 0 mm 2 mps 694 mmHg 49%
05:00 +10°C° 0 mm 2 mps 694 mmHg 49%
06:00 +13°C° 0 mm 2 mps 694 mmHg 48%
07:00 +15°C° 0 mm 2 mps 694 mmHg 46%
08:00 +17°C° 0 mm 2 mps 695 mmHg 44%
09:00 +17°C° 0 mm 2 mps 695 mmHg 44%
10:00 +18°C° 0 mm 2 mps 695 mmHg 43%
11:00 +19°C° 0 mm 2 mps 695 mmHg 43%
12:00 +19°C° 0 mm 2 mps 695 mmHg 42%
13:00 +20°C° 0 mm 2 mps 695 mmHg 42%
14:00 +20°C° 0 mm 3 mps 695 mmHg 42%
15:00 +19°C° 0 mm 2 mps 695 mmHg 47%
16:00 +19°C° 0 mm 2 mps 695 mmHg 52%
17:00 +18°C° 0 mm 2 mps 695 mmHg 57%
18:00 +17°C° 0.1 mm 2 mps 695 mmHg 61%
19:00 +16°C° 0.1 mm 2 mps 696 mmHg 65%
20:00 +15°C° 0.1 mm 2 mps 696 mmHg 68%
21:00 +14°C° 0 mm 2 mps 696 mmHg 70%
22:00 +13°C° 0 mm 2 mps 696 mmHg 71%
23:00 +13°C° 0 mm 2 mps 696 mmHg 73%

15 May, Saturday

Time Temperature Precipitation Wind Pressure Humidity
00:00 +12°C° 0 mm 2 mps 696 mmHg 72%
01:00 +12°C° 0 mm 1 mps 695 mmHg 72%
02:00 +11°C° 0 mm 1 mps 695 mmHg 71%
03:00 +11°C° 0 mm 1 mps 695 mmHg 71%
04:00 +11°C° 0 mm 1 mps 695 mmHg 70%
05:00 +10°C° 0 mm 1 mps 695 mmHg 70%
06:00 +12°C° 0 mm 1 mps 695 mmHg 65%
07:00 +13°C° 0 mm 1 mps 695 mmHg 60%
08:00 +14°C° 0 mm 2 mps 695 mmHg 56%
09:00 +15°C° 0 mm 2 mps 695 mmHg 53%
10:00 +17°C° 0 mm 2 mps 695 mmHg 51%
11:00 +18°C° 0 mm 3 mps 695 mmHg 49%
12:00 +18°C° 0 mm 2 mps 695 mmHg 47%
13:00 +19°C° 0 mm 2 mps 695 mmHg 45%
14:00 +19°C° 0 mm 2 mps 694 mmHg 43%
15:00 +19°C° 0 mm 2 mps 694 mmHg 43%
16:00 +19°C° 0 mm 2 mps 694 mmHg 43%
17:00 +20°C° 0 mm 1 mps 694 mmHg 43%
18:00 +18°C° 0 mm 1 mps 694 mmHg 47%
19:00 +16°C° 0 mm 2 mps 694 mmHg 51%
20:00 +14°C° 0 mm 2 mps 694 mmHg 54%
21:00 +14°C° 0 mm 2 mps 693 mmHg 55%
22:00 +13°C° 0 mm 1 mps 693 mmHg 55%
23:00 +13°C° 0 mm 1 mps 693 mmHg 55%

16 May, Sunday

Time Temperature Precipitation Wind Pressure Humidity
00:00 +13°C° 0 mm 1 mps 692 mmHg 54%
01:00 +12°C° 0 mm 1 mps 692 mmHg 53%
02:00 +12°C° 0 mm 2 mps 691 mmHg 52%
03:00 +12°C° 0 mm 1 mps 691 mmHg 50%
04:00 +12°C° 0 mm 1 mps 691 mmHg 49%
05:00 +12°C° 0 mm 1 mps 691 mmHg 48%
06:00 +14°C° 0 mm 1 mps 692 mmHg 46%
07:00 +16°C° 0 mm 1 mps 692 mmHg 45%
08:00 +18°C° 0 mm 1 mps 692 mmHg 43%
09:00 +18°C° 0 mm 2 mps 692 mmHg 42%
10:00 +20°C° 0 mm 2 mps 692 mmHg 42%
11:00 +21°C° 0 mm 3 mps 693 mmHg 41%
12:00 +21°C° 0 mm 3 mps 693 mmHg 41%
13:00 +22°C° 0 mm 3 mps 693 mmHg 40%
14:00 +24°C° 0 mm 3 mps 693 mmHg 40%
15:00 +22°C° 0 mm 3 mps 693 mmHg 41%
16:00 +23°C° 0 mm 2 mps 693 mmHg 43%
17:00 +23°C° 0 mm 2 mps 693 mmHg 44%
18:00 +20°C° 0 mm 2 mps 693 mmHg 48%
19:00 +18°C° 0 mm 2 mps 692 mmHg 52%
20:00 +16°C° 0 mm 3 mps 692 mmHg 56%
21:00 +16°C° 0 mm 2 mps 692 mmHg 55%
22:00 +16°C° 0 mm 2 mps 692 mmHg 53%
23:00 +15°C° 0 mm 2 mps 692 mmHg 52%
Show more

We Need Your Consent

Meteoprog and our Service Providers may store and access personal data such as cookies, device identifiers or other similar technologies on your device and process such data to personalise content and ads, as well as provide social media features and to analyse the traffic.

  • Store and/or access information on your device

    Cookies, device identifiers or other information can be stored or accessed on your device for the purposes indicated above.

  • Personalised ads and content, ad and content measurement, audience insights, and products development

    Ads and content can be personalised based on a profile. More data can be added to better personalise ads and content. Ad and content performance can be measured. Insights about the audience who saw the ads and content can be derived. Such data can be used to develop or improve user’s experience, systems and software.

By clicking ‘I Agree’ you will allow the use of indicated cookies, device identifiers, web beacons or other similar technologies. Your settings can be changed in the browser on your device.

For certain purposes, legitimate interests may be relied on, rather than consent. You can read more about this in our Privacy and Cookie Policy.